| time (UTC) | temp F | wind direction | speed MPH | gust MPH | rain 1hr in | rain 24hr in | rain mn in | humidity % | barometer mb |
| 20260906203105 | 99 | 347 | 2.0 | 7.0 | 0.00 | 0.00 | 0.00 | 43 | 1011.3 |
| 20260906202555 | 99 | 220 | 2.0 | 5.0 | 0.00 | 0.00 | 0.00 | 42 | 1011.5 |
| 20260906202055 | 99 | 185 | 1.0 | 7.0 | 0.00 | 0.00 | 0.00 | 44 | 1011.4 |
| 20260906201610 | 99 | 0 | 3.0 | 7.0 | 0.00 | 0.00 | 0.00 | 42 | 1011.5 |
| 20260906201052 | 99 | 75 | 3.0 | 7.0 | 0.00 | 0.00 | 0.00 | 44 | 1011.6 |
| 20260906200552 | 98 | 146 | 2.0 | 5.0 | 0.00 | 0.00 | 0.00 | 45 | 1011.7 |
| 20260906200100 | 98 | 104 | 2.0 | 5.0 | 0.00 | 0.00 | 0.00 | 44 | 1011.8 |
| 20260906195551 | 97 | 175 | 1.0 | 8.0 | 0.00 | 0.00 | 0.00 | 45 | 1011.8 |
| 20260906195053 | 97 | 203 | 4.0 | 8.0 | 0.00 | 0.00 | 0.00 | 45 | 1011.9 |
| 20260906194600 | 97 | 200 | 2.0 | 10.0 | 0.00 | 0.00 | 0.00 | 46 | 1012.1 |
| 20260906194051 | 97 | 103 | 3.0 | 10.0 | 0.00 | 0.00 | 0.00 | 47 | 1012.1 |
| 20260906193556 | 97 | 149 | 2.0 | 9.0 | 0.00 | 0.00 | 0.00 | 46 | 1012.2 |
| 20260906193104 | 96 | 165 | 4.0 | 9.0 | 0.00 | 0.00 | 0.00 | 47 | 1012.2 |
| 20260906192552 | 96 | 200 | 2.0 | 9.0 | 0.00 | 0.00 | 0.00 | 47 | 1012.2 |
| 20260906192052 | 96 | 123 | 2.0 | 9.0 | 0.00 | 0.00 | 0.00 | 49 | 1012.3 |
| 20260906191615 | 95 | 219 | 2.0 | 8.0 | 0.00 | 0.00 | 0.00 | 48 | 1012.2 |
| 20260906191052 | 95 | 191 | 3.0 | 8.0 | 0.00 | 0.00 | 0.00 | 48 | 1012.3 |
| 20260906190552 | 94 | 186 | 4.0 | 8.0 | 0.00 | 0.00 | 0.00 | 50 | 1012.4 |
| 20260906190059 | 94 | 211 | 2.0 | 5.0 | 0.00 | 0.00 | 0.00 | 51 | 1012.5 |
| 20260906185551 | 94 | 204 | 1.0 | 11.0 | 0.00 | 0.00 | 0.00 | 50 | 1012.6 |
| 20260906185052 | 95 | 109 | 2.0 | 11.0 | 0.00 | 0.00 | 0.00 | 49 | 1012.7 |
| 20260906184556 | 95 | 155 | 3.0 | 8.0 | 0.00 | 0.00 | 0.00 | 51 | 1012.7 |
| 20260906184051 | 94 | 265 | 3.0 | 8.0 | 0.00 | 0.00 | 0.00 | 50 | 1012.7 |
| 20260906183552 | 93 | 0 | 0.0 | 9.0 | 0.00 | 0.00 | 0.00 | 51 | 1012.7 |
| 20260906183107 | 93 | 284 | 3.0 | 10.0 | 0.00 | 0.00 | 0.00 | 52 | 1012.8 |
| 20260906182553 | 93 | 206 | 4.0 | 10.0 | 0.00 | 0.00 | 0.00 | 51 | 1012.8 |
| 20260906182055 | 94 | 152 | 4.0 | 9.0 | 0.00 | 0.00 | 0.00 | 52 | 1012.9 |
| 20260906181603 | 94 | 201 | 1.0 | 10.0 | 0.00 | 0.00 | 0.00 | 51 | 1012.9 |
| 20260906181052 | 94 | 131 | 3.0 | 10.0 | 0.00 | 0.00 | 0.00 | 50 | 1013.0 |
| 20260906180552 | 94 | 221 | 3.0 | 9.0 | 0.00 | 0.00 | 0.00 | 50 | 1013.1 |
| 20260906180116 | 94 | 0 | 2.0 | 8.0 | 0.00 | 0.00 | 0.00 | 54 | 1013.2 |
| 20260906175552 | 93 | 0 | 1.0 | 9.0 | 0.00 | 0.00 | 0.00 | 54 | 1013.2 |
| 20260906175057 | 93 | 153 | 2.0 | 9.0 | 0.00 | 0.00 | 0.00 | 53 | 1013.4 |
| 20260906174559 | 92 | 205 | 3.0 | 9.0 | 0.00 | 0.00 | 0.00 | 55 | 1013.4 |
| 20260906174050 | 92 | 162 | 5.0 | 9.0 | 0.00 | 0.00 | 0.00 | 54 | 1013.5 |
| 20260906173549 | 92 | 203 | 3.0 | 8.0 | 0.00 | 0.00 | 0.00 | 56 | 1013.6 |
| 20260906173106 | 92 | 143 | 2.0 | 8.0 | 0.00 | 0.00 | 0.00 | 57 | 1013.6 |
| 20260906172554 | 92 | 151 | 2.0 | 7.0 | 0.00 | 0.00 | 0.00 | 56 | 1013.7 |
| 20260906172049 | 91 | 147 | 3.0 | 7.0 | 0.00 | 0.00 | 0.00 | 59 | 1013.8 |
| 20260906171603 | 90 | 179 | 1.0 | 7.0 | 0.00 | 0.00 | 0.00 | 60 | 1013.8 |
| 20260906171053 | 91 | 220 | 2.0 | 8.0 | 0.00 | 0.00 | 0.00 | 59 | 1014.1 |
| 20260906170553 | 90 | 0 | 2.0 | 8.0 | 0.00 | 0.00 | 0.00 | 59 | 1014.1 |
| 20260906170123 | 90 | 247 | 3.0 | 10.0 | 0.00 | 0.00 | 0.00 | 60 | 1014.1 |
| 20260906165553 | 90 | 236 | 2.0 | 10.0 | 0.00 | 0.00 | 0.00 | 60 | 1014.1 |
| 20260906165057 | 90 | 269 | 3.0 | 10.0 | 0.00 | 0.00 | 0.00 | 61 | 1014.1 |
| 20260906164602 | 90 | 116 | 1.0 | 6.0 | 0.00 | 0.00 | 0.00 | 62 | 1014.0 |
| 20260906164050 | 90 | 148 | 2.0 | 6.0 | 0.00 | 0.00 | 0.00 | 62 | 1014.1 |
| 20260906163552 | 89 | 86 | 1.0 | 7.0 | 0.00 | 0.00 | 0.00 | 64 | 1014.1 |
| 20260906163115 | 89 | 242 | 2.0 | 7.0 | 0.00 | 0.00 | 0.00 | 63 | 1014.2 |
| 20260906162550 | 89 | 154 | 0.0 | 5.0 | 0.00 | 0.00 | 0.00 | 65 | 1014.1 |
| 20260906162052 | 88 | 97 | 1.0 | 8.0 | 0.00 | 0.00 | 0.00 | 66 | 1014.2 |
| 20260906161603 | 87 | 305 | 2.0 | 8.0 | 0.00 | 0.00 | 0.00 | 66 | 1014.2 |
| 20260906161049 | 87 | 208 | 1.0 | 5.0 | 0.00 | 0.00 | 0.00 | 67 | 1014.2 |
| 20260906160552 | 87 | 0 | 1.0 | 6.0 | 0.00 | 0.00 | 0.00 | 67 | 1014.1 |
| 20260906160104 | 86 | 121 | 2.0 | 6.0 | 0.00 | 0.00 | 0.00 | 69 | 1014.2 |
| 20260906155550 | 86 | 193 | 1.0 | 8.0 | 0.00 | 0.00 | 0.00 | 68 | 1014.2 |
| 20260906155052 | 86 | 171 | 4.0 | 8.0 | 0.00 | 0.00 | 0.00 | 69 | 1014.1 |
| 20260906154616 | 85 | 196 | 2.0 | 9.0 | 0.00 | 0.00 | 0.00 | 72 | 1014.1 |
| 20260906154053 | 85 | 238 | 2.0 | 10.0 | 0.00 | 0.00 | 0.00 | 72 | 1014.1 |
| 20260906153552 | 85 | 198 | 3.0 | 10.0 | 0.00 | 0.00 | 0.00 | 72 | 1014.0 |
| 20260906153101 | 85 | 214 | 5.0 | 10.0 | 0.00 | 0.00 | 0.00 | 72 | 1014.0 |
| 20260906152549 | 85 | 208 | 3.0 | 8.0 | 0.00 | 0.00 | 0.00 | 73 | 1013.9 |
| 20260906152053 | 84 | 148 | 2.0 | 7.0 | 0.00 | 0.00 | 0.00 | 75 | 1013.9 |
| 20260906151605 | 84 | 197 | 2.0 | 8.0 | 0.00 | 0.00 | 0.00 | 75 | 1013.8 |
| 20260906151050 | 83 | 188 | 2.0 | 8.0 | 0.00 | 0.00 | 0.00 | 76 | 1013.9 |
| 20260906150553 | 83 | 196 | 2.0 | 9.0 | 0.00 | 0.00 | 0.00 | 77 | 1013.8 |
| 20260906150113 | 83 | 190 | 4.0 | 9.0 | 0.00 | 0.00 | 0.00 | 78 | 1013.8 |
| 20260906145550 | 83 | 216 | 3.0 | 9.0 | 0.00 | 0.00 | 0.00 | 78 | 1013.9 |
| 20260906145050 | 82 | 265 | 3.0 | 9.0 | 0.00 | 0.00 | 0.00 | 78 | 1013.9 |
| 20260906144603 | 82 | 202 | 3.0 | 9.0 | 0.00 | 0.00 | 0.00 | 79 | 1013.9 |
| 20260906144049 | 82 | 0 | 3.0 | 6.0 | 0.00 | 0.00 | 0.00 | 80 | 1013.7 |
| 20260906143553 | 82 | 192 | 1.0 | 6.0 | 0.00 | 0.00 | 0.00 | 82 | 1013.8 |
| 20260906143101 | 81 | 0 | 2.0 | 5.0 | 0.00 | 0.00 | 0.00 | 83 | 1013.8 |
| 20260906142552 | 81 | 190 | 1.0 | 5.0 | 0.00 | 0.00 | 0.00 | 84 | 1013.7 |
| 20260906142053 | 80 | 205 | 2.0 | 5.0 | 0.00 | 0.00 | 0.00 | 86 | 1013.7 |
| 20260906141600 | 80 | 136 | 1.0 | 4.0 | 0.00 | 0.00 | 0.00 | 88 | 1013.7 |
| 20260906141052 | 80 | 159 | 0.0 | 4.0 | 0.00 | 0.00 | 0.00 | 89 | 1013.6 |
| 20260906140555 | 79 | 0 | 0.0 | 4.0 | 0.00 | 0.00 | 0.00 | 89 | 1013.6 |
| 20260906140108 | 79 | 0 | 0.0 | 4.0 | 0.00 | 0.00 | 0.00 | 90 | 1013.5 |
| 20260906135556 | 79 | 175 | 0.0 | 5.0 | 0.00 | 0.00 | 0.00 | 90 | 1013.6 |
| 20260906135053 | 79 | 175 | 1.0 | 5.0 | 0.00 | 0.00 | 0.00 | 90 | 1013.5 |
| 20260906134555 | 78 | 173 | 0.0 | 0.0 | 0.00 | 0.00 | 0.00 | 91 | 1013.5 |
| 20260906134052 | 78 | 0 | 0.0 | 0.0 | 0.00 | 0.00 | 0.00 | 91 | 1013.4 |
| 20260906133552 | 78 | 0 | 0.0 | 0.0 | 0.00 | 0.00 | 0.00 | 91 | 1013.2 |
| 20260906133133 | 78 | 0 | 0.0 | 0.0 | 0.00 | 0.00 | 0.00 | 91 | 1013.2 |
| 20260906132555 | 78 | 0 | 0.0 | 0.0 | 0.00 | 0.00 | 0.00 | 91 | 1013.1 |
| 20260906132052 | 77 | 0 | 0.0 | 0.0 | 0.00 | 0.00 | 0.00 | 91 | 1013.1 |
| 20260906131611 | 77 | 0 | 0.0 | 0.0 | 0.00 | 0.00 | 0.00 | 91 | 1013.1 |
| 20260906131052 | 77 | 0 | 0.0 | 0.0 | 0.00 | 0.00 | 0.00 | 91 | 1013.0 |
| 20260906130552 | 77 | 0 | 0.0 | 0.0 | 0.00 | 0.00 | 0.00 | 91 | 1013.0 |
| 20260906130115 | 77 | 0 | 0.0 | 0.0 | 0.00 | 0.00 | 0.00 | 90 | 1012.9 |
| 20260906125555 | 77 | 0 | 0.0 | 0.0 | 0.00 | 0.00 | 0.00 | 90 | 1012.9 |
| 20260906125051 | 77 | 0 | 0.0 | 0.0 | 0.00 | 0.00 | 0.00 | 90 | 1012.8 |
| 20260906124602 | 77 | 0 | 0.0 | 0.0 | 0.00 | 0.00 | 0.00 | 90 | 1012.7 |
| 20260906124052 | 77 | 0 | 0.0 | 0.0 | 0.00 | 0.00 | 0.00 | 90 | 1012.6 |
| 20260906123552 | 77 | 0 | 0.0 | 0.0 | 0.00 | 0.00 | 0.00 | 90 | 1012.4 |
| 20260906123104 | 77 | 0 | 0.0 | 0.0 | 0.00 | 0.00 | 0.00 | 90 | 1012.6 |
| 20260906122553 | 77 | 0 | 0.0 | 3.0 | 0.00 | 0.00 | 0.00 | 90 | 1012.4 |
| 20260906122053 | 77 | 0 | 0.0 | 3.0 | 0.00 | 0.00 | 0.00 | 89 | 1012.4 |
| 20260906121601 | 77 | 185 | 1.0 | 3.0 | 0.00 | 0.00 | 0.00 | 89 | 1012.4 |
| 20260906121052 | 77 | 186 | 0.0 | 3.0 | 0.00 | 0.00 | 0.00 | 89 | 1012.3 |
| 20260906120553 | 77 | 186 | 0.0 | 4.0 | 0.00 | 0.00 | 0.00 | 89 | 1012.3 |
| 20260906120105 | 77 | 0 | 0.0 | 4.0 | 0.00 | 0.00 | 0.00 | 89 | 1012.2 |
| 20260906115555 | 77 | 185 | 0.0 | 3.0 | 0.00 | 0.00 | 0.00 | 89 | 1012.2 |
| 20260906115054 | 77 | 190 | 0.0 | 2.0 | 0.00 | 0.00 | 0.00 | 89 | 1012.3 |
| 20260906114601 | 77 | 0 | 0.0 | 3.0 | 0.00 | 0.00 | 0.00 | 89 | 1012.2 |
| 20260906114051 | 77 | 0 | 1.0 | 5.0 | 0.00 | 0.00 | 0.00 | 89 | 1012.0 |
| 20260906113552 | 77 | 193 | 0.0 | 5.0 | 0.00 | 0.00 | 0.00 | 89 | 1012.0 |
| 20260906113104 | 77 | 194 | 0.0 | 5.0 | 0.00 | 0.00 | 0.00 | 88 | 1012.1 |
| 20260906112551 | 77 | 194 | 2.0 | 5.0 | 0.00 | 0.00 | 0.00 | 88 | 1012.0 |
| 20260906112054 | 77 | 188 | 1.0 | 4.0 | 0.00 | 0.00 | 0.00 | 88 | 1011.8 |
| 20260906111617 | 77 | 190 | 0.0 | 4.0 | 0.00 | 0.00 | 0.00 | 88 | 1011.8 |
| 20260906111052 | 77 | 0 | 2.0 | 6.0 | 0.00 | 0.00 | 0.00 | 88 | 1011.8 |
| 20260906110552 | 77 | 0 | 0.0 | 6.0 | 0.00 | 0.00 | 0.00 | 88 | 1011.7 |
| 20260906110058 | 77 | 211 | 0.0 | 4.0 | 0.00 | 0.00 | 0.00 | 88 | 1011.8 |
| 20260906105553 | 77 | 0 | 0.0 | 1.0 | 0.00 | 0.00 | 0.00 | 87 | 1011.4 |
| 20260906105055 | 77 | 0 | 0.0 | 0.0 | 0.00 | 0.00 | 0.00 | 87 | 1011.2 |
| 20260906104557 | 77 | 0 | 0.0 | 0.0 | 0.00 | 0.00 | 0.00 | 87 | 1011.1 |
| 20260906104051 | 77 | 0 | 0.0 | 0.0 | 0.00 | 0.00 | 0.00 | 87 | 1011.2 |
| 20260906103551 | 77 | 0 | 0.0 | 0.0 | 0.00 | 0.00 | 0.00 | 87 | 1011.2 |
| 20260906103104 | 77 | 0 | 0.0 | 0.0 | 0.00 | 0.00 | 0.00 | 87 | 1011.3 |
| 20260906102552 | 77 | 0 | 0.0 | 0.0 | 0.00 | 0.00 | 0.00 | 87 | 1011.2 |
| 20260906102142 | 77 | 0 | 0.0 | 0.0 | 0.00 | 0.00 | 0.00 | 87 | 1011.2 |
| 20260906101557 | 77 | 0 | 0.0 | 0.0 | 0.00 | 0.00 | 0.00 | 87 | 1011.2 |
| 20260906101052 | 77 | 0 | 0.0 | 0.0 | 0.00 | 0.00 | 0.00 | 87 | 1011.1 |
| 20260906100552 | 77 | 0 | 0.0 | 0.0 | 0.00 | 0.00 | 0.00 | 87 | 1011.1 |
| 20260906100058 | 77 | 0 | 0.0 | 0.0 | 0.00 | 0.00 | 0.00 | 87 | 1011.1 |
| 20260906095556 | 77 | 0 | 0.0 | 0.0 | 0.00 | 0.00 | 0.00 | 86 | 1011.1 |
| 20260906095052 | 77 | 0 | 0.0 | 0.0 | 0.00 | 0.00 | 0.00 | 86 | 1011.1 |
| 20260906094556 | 77 | 0 | 0.0 | 0.0 | 0.00 | 0.00 | 0.00 | 86 | 1011.0 |
| 20260906094051 | 78 | 0 | 0.0 | 0.0 | 0.00 | 0.00 | 0.00 | 86 | 1010.9 |
| 20260906093552 | 78 | 0 | 0.0 | 0.0 | 0.00 | 0.00 | 0.00 | 86 | 1011.0 |
| 20260906093103 | 78 | 0 | 0.0 | 0.0 | 0.00 | 0.00 | 0.00 | 86 | 1011.1 |
| 20260906092552 | 78 | 0 | 0.0 | 1.0 | 0.00 | 0.00 | 0.00 | 86 | 1011.1 |
| 20260906092053 | 78 | 0 | 0.0 | 2.0 | 0.00 | 0.00 | 0.00 | 86 | 1011.1 |
| 20260906091600 | 78 | 0 | 0.0 | 2.0 | 0.00 | 0.00 | 0.00 | 85 | 1011.1 |
| 20260906091052 | 78 | 0 | 0.0 | 2.0 | 0.00 | 0.00 | 0.00 | 85 | 1011.2 |
| 20260906090551 | 78 | 0 | 0.0 | 2.0 | 0.00 | 0.00 | 0.00 | 85 | 1011.3 |
| 20260906090100 | 78 | 0 | 0.0 | 2.0 | 0.00 | 0.00 | 0.00 | 85 | 1011.2 |
| 20260906085556 | 78 | 0 | 0.0 | 2.0 | 0.00 | 0.00 | 0.00 | 85 | 1011.2 |
| 20260906085052 | 78 | 0 | 0.0 | 2.0 | 0.00 | 0.00 | 0.00 | 85 | 1011.2 |
| 20260906084601 | 78 | 0 | 0.0 | 2.0 | 0.00 | 0.00 | 0.00 | 85 | 1011.3 |
| 20260906084052 | 78 | 219 | 1.0 | 2.0 | 0.00 | 0.00 | 0.00 | 85 | 1011.4 |
| 20260906083554 | 79 | 219 | 0.0 | 2.0 | 0.00 | 0.00 | 0.00 | 85 | 1011.3 |
| 20260906083100 | 79 | 0 | 0.0 | 4.0 | 0.00 | 0.00 | 0.00 | 84 | 1011.4 |
| 20260906082553 | 79 | 219 | 0.0 | 4.0 | 0.00 | 0.00 | 0.00 | 84 | 1011.5 |
| 20260906082052 | 79 | 0 | 1.0 | 4.0 | 0.00 | 0.00 | 0.00 | 84 | 1011.5 |
| 20260906081557 | 79 | 221 | 1.0 | 5.0 | 0.00 | 0.00 | 0.00 | 84 | 1011.5 |
| 20260906081052 | 79 | 206 | 2.0 | 6.0 | 0.00 | 0.00 | 0.00 | 84 | 1011.7 |
| 20260906080551 | 79 | 205 | 2.0 | 6.0 | 0.00 | 0.00 | 0.00 | 84 | 1011.7 |
| 20260906080103 | 79 | 193 | 1.0 | 5.0 | 0.00 | 0.00 | 0.00 | 83 | 1011.7 |
| 20260906075551 | 79 | 189 | 2.0 | 6.0 | 0.00 | 0.00 | 0.00 | 83 | 1011.6 |
| 20260906075052 | 79 | 0 | 2.0 | 8.0 | 0.00 | 0.00 | 0.00 | 83 | 1011.6 |
| 20260906074608 | 79 | 203 | 3.0 | 8.0 | 0.00 | 0.00 | 0.00 | 82 | 1011.6 |
| 20260906074051 | 79 | 200 | 1.0 | 6.0 | 0.00 | 0.00 | 0.00 | 82 | 1011.7 |
| 20260906073551 | 79 | 200 | 0.0 | 7.0 | 0.00 | 0.00 | 0.00 | 82 | 1011.8 |
| 20260906073102 | 79 | 200 | 3.0 | 7.0 | 0.00 | 0.00 | 0.00 | 82 | 1011.9 |
| 20260906072552 | 80 | 229 | 4.0 | 7.0 | 0.00 | 0.00 | 0.00 | 82 | 1012.1 |
| 20260906072052 | 80 | 231 | 2.0 | 6.0 | 0.00 | 0.00 | 0.00 | 82 | 1012.2 |
| 20260906071559 | 80 | 221 | 3.0 | 6.0 | 0.00 | 0.00 | 0.00 | 82 | 1012.2 |
| 20260906071053 | 80 | 202 | 2.0 | 9.0 | 0.00 | 0.00 | 0.00 | 82 | 1012.4 |
| 20260906070552 | 80 | 209 | 4.0 | 9.0 | 0.00 | 0.00 | 0.00 | 81 | 1012.6 |
| 20260906070103 | 80 | 221 | 3.0 | 8.0 | 0.00 | 0.00 | 0.00 | 81 | 1012.5 |
| 20260906065553 | 80 | 190 | 2.0 | 9.0 | 0.00 | 0.00 | 0.00 | 80 | 1012.5 |
| 20260906065052 | 80 | 216 | 3.0 | 9.0 | 0.00 | 0.00 | 0.00 | 80 | 1012.5 |
| 20260906064557 | 80 | 210 | 3.0 | 7.0 | 0.00 | 0.00 | 0.00 | 79 | 1012.6 |
| 20260906064052 | 80 | 205 | 4.0 | 7.0 | 0.00 | 0.00 | 0.00 | 79 | 1012.4 |
| 20260906063551 | 80 | 171 | 3.0 | 7.0 | 0.00 | 0.00 | 0.00 | 79 | 1012.4 |
| 20260906063057 | 80 | 184 | 2.0 | 10.0 | 0.00 | 0.00 | 0.00 | 78 | 1012.6 |
| 20260906062552 | 80 | 222 | 3.0 | 10.0 | 0.00 | 0.00 | 0.00 | 78 | 1012.5 |
| 20260906062051 | 81 | 200 | 3.0 | 8.0 | 0.00 | 0.00 | 0.00 | 78 | 1012.5 |
| 20260906061604 | 81 | 204 | 3.0 | 7.0 | 0.00 | 0.00 | 0.00 | 77 | 1012.7 |
| 20260906061053 | 81 | 213 | 2.0 | 7.0 | 0.00 | 0.00 | 0.00 | 77 | 1012.7 |
| 20260906060553 | 81 | 188 | 0.0 | 6.0 | 0.00 | 0.00 | 0.00 | 76 | 1012.8 |
| 20260906060105 | 81 | 174 | 2.0 | 6.0 | 0.00 | 0.00 | 0.00 | 76 | 1012.7 |
| 20260906055552 | 81 | 192 | 3.0 | 6.0 | 0.00 | 0.00 | 0.00 | 76 | 1012.7 |
| 20260906055053 | 81 | 182 | 1.0 | 5.0 | 0.00 | 0.00 | 0.00 | 75 | 1012.6 |
| 20260906054605 | 81 | 183 | 1.0 | 5.0 | 0.00 | 0.00 | 0.00 | 75 | 1012.7 |
| 20260906054052 | 81 | 0 | 0.0 | 4.0 | 0.00 | 0.00 | 0.00 | 74 | 1012.8 |
| 20260906053551 | 82 | 186 | 2.0 | 6.0 | 0.00 | 0.00 | 0.00 | 74 | 1012.8 |
| 20260906053103 | 82 | 177 | 1.0 | 6.0 | 0.00 | 0.00 | 0.00 | 74 | 1012.7 |
| 20260906052552 | 82 | 177 | 1.0 | 6.0 | 0.00 | 0.00 | 0.00 | 73 | 1012.7 |
| 20260906052050 | 82 | 196 | 3.0 | 6.0 | 0.00 | 0.00 | 0.00 | 73 | 1012.8 |
| 20260906051612 | 82 | 200 | 2.0 | 6.0 | 0.00 | 0.00 | 0.00 | 73 | 1012.7 |
| 20260906051049 | 82 | 152 | 1.0 | 7.0 | 0.00 | 0.00 | 0.00 | 72 | 1012.8 |
| 20260906050550 | 82 | 166 | 1.0 | 7.0 | 0.00 | 0.00 | 0.00 | 72 | 1012.8 |
| 20260906050104 | 82 | 0 | 2.0 | 7.0 | 0.00 | 0.00 | 0.00 | 71 | 1012.9 |
| 20260906045550 | 83 | 197 | 1.0 | 7.0 | 0.00 | 0.00 | 0.00 | 71 | 1013.0 |
| 20260906045053 | 83 | 192 | 1.0 | 7.0 | 0.00 | 0.00 | 0.00 | 70 | 1012.9 |
| 20260906044607 | 83 | 213 | 2.0 | 8.0 | 0.00 | 0.00 | 0.00 | 70 | 1012.9 |
| 20260906044049 | 83 | 178 | 2.0 | 8.0 | 0.00 | 0.00 | 0.00 | 70 | 1012.8 |
| 20260906043551 | 83 | 0 | 2.0 | 8.0 | 0.00 | 0.00 | 0.00 | 70 | 1012.9 |
| 20260906043100 | 83 | 202 | 2.0 | 9.0 | 0.00 | 0.00 | 0.00 | 69 | 1012.9 |
| 20260906042550 | 83 | 211 | 2.0 | 10.0 | 0.00 | 0.00 | 0.00 | 69 | 1012.9 |
| 20260906042049 | 83 | 0 | 3.0 | 10.0 | 0.00 | 0.00 | 0.00 | 69 | 1012.9 |
| 20260906041601 | 84 | 146 | 3.0 | 13.0 | 0.00 | 0.00 | 0.00 | 69 | 1012.9 |
| 20260906041053 | 84 | 227 | 4.0 | 13.0 | 0.00 | 0.00 | 0.00 | 69 | 1012.9 |
| 20260906040555 | 84 | 105 | 3.0 | 12.0 | 0.00 | 0.00 | 0.00 | 69 | 1013.0 |
| 20260906040139 | 84 | 188 | 3.0 | 10.0 | 0.00 | 0.00 | 0.00 | 69 | 1013.0 |
| 20260906035553 | 84 | 202 | 3.0 | 10.0 | 0.00 | 0.00 | 0.00 | 68 | 1012.9 |
| 20260906035053 | 84 | 200 | 3.0 | 10.0 | 0.00 | 0.00 | 0.00 | 68 | 1012.7 |
| 20260906034611 | 85 | 131 | 3.0 | 10.0 | 0.00 | 0.00 | 0.00 | 68 | 1012.7 |
| 20260906034057 | 85 | 202 | 3.0 | 8.0 | 0.00 | 0.00 | 0.00 | 68 | 1012.5 |
| 20260906033554 | 85 | 139 | 3.0 | 10.0 | 0.00 | 0.00 | 0.00 | 68 | 1012.4 |
| 20260906033108 | 85 | 190 | 3.0 | 10.0 | 0.00 | 0.00 | 0.00 | 67 | 1012.4 |
| 20260906032554 | 85 | 188 | 2.0 | 10.0 | 0.00 | 0.00 | 0.00 | 67 | 1012.4 |
| 20260906032054 | 85 | 222 | 3.0 | 10.0 | 0.00 | 0.00 | 0.00 | 67 | 1012.4 |
| 20260906031605 | 86 | 161 | 3.0 | 10.0 | 0.00 | 0.00 | 0.00 | 67 | 1012.2 |
| 20260906031054 | 86 | 165 | 3.0 | 12.0 | 0.00 | 0.00 | 0.00 | 67 | 1011.9 |
| 20260906030554 | 86 | 215 | 4.0 | 12.0 | 0.00 | 0.00 | 0.00 | 66 | 1011.9 |
| 20260906030104 | 86 | 159 | 3.0 | 11.0 | 0.00 | 0.00 | 0.00 | 66 | 1011.7 |
| 20260906025554 | 87 | 126 | 3.0 | 14.0 | 0.00 | 0.00 | 0.00 | 65 | 1011.6 |
| 20260906025055 | 87 | 190 | 4.0 | 14.0 | 0.00 | 0.00 | 0.00 | 65 | 1011.5 |
| 20260906024613 | 87 | 125 | 2.0 | 13.0 | 0.00 | 0.00 | 0.00 | 64 | 1011.4 |
| 20260906024052 | 87 | 154 | 4.0 | 13.0 | 0.00 | 0.00 | 0.00 | 64 | 1011.2 |
| 20260906023558 | 88 | 150 | 2.0 | 11.0 | 0.00 | 0.00 | 0.00 | 63 | 1011.1 |
| 20260906023107 | 88 | 149 | 5.0 | 14.0 | 0.00 | 0.00 | 0.00 | 62 | 1011.0 |
| 20260906022554 | 88 | 159 | 4.0 | 14.0 | 0.00 | 0.00 | 0.00 | 61 | 1011.0 |
| 20260906022054 | 89 | 232 | 4.0 | 12.0 | 0.00 | 0.00 | 0.00 | 60 | 1010.8 |
| 20260906021612 | 89 | 117 | 6.0 | 12.0 | 0.00 | 0.00 | 0.00 | 58 | 1010.6 |
| 20260906021053 | 89 | 131 | 2.0 | 13.0 | 0.00 | 0.00 | 0.00 | 57 | 1010.6 |
| 20260906020553 | 90 | 103 | 3.0 | 13.0 | 0.00 | 0.00 | 0.00 | 56 | 1010.6 |
| 20260906020106 | 90 | 116 | 5.0 | 12.0 | 0.00 | 0.00 | 0.00 | 55 | 1010.4 |
| 20260906015551 | 90 | 175 | 1.0 | 10.0 | 0.00 | 0.00 | 0.00 | 54 | 1010.3 |
| 20260906015052 | 90 | 0 | 4.0 | 12.0 | 0.00 | 0.00 | 0.00 | 54 | 1010.3 |
| 20260906014604 | 90 | 143 | 4.0 | 12.0 | 0.00 | 0.00 | 0.00 | 53 | 1010.2 |
| 20260906014052 | 90 | 139 | 4.0 | 10.0 | 0.00 | 0.00 | 0.00 | 53 | 1010.1 |
| 20260906013552 | 91 | 160 | 3.0 | 13.0 | 0.00 | 0.00 | 0.00 | 53 | 1010.1 |
| 20260906013122 | 91 | 98 | 3.0 | 13.0 | 0.00 | 0.00 | 0.00 | 52 | 1010.1 |
| 20260906012551 | 91 | 128 | 3.0 | 9.0 | 0.00 | 0.00 | 0.00 | 50 | 1009.9 |
| 20260906012054 | 92 | 126 | 1.0 | 3.0 | 0.00 | 0.00 | 0.00 | 49 | 1009.9 |
| 20260906011610 | 92 | 115 | 2.0 | 3.0 | 0.00 | 0.00 | 0.00 | 48 | 1009.8 |
| 20260906011055 | 92 | 116 | 0.0 | 2.0 | 0.00 | 0.00 | 0.00 | 48 | 1009.8 |
| 20260906010554 | 93 | 117 | 0.0 | 1.0 | 0.00 | 0.00 | 0.00 | 48 | 1009.6 |
| 20260906010104 | 93 | 0 | 0.0 | 1.0 | 0.00 | 0.00 | 0.00 | 48 | 1009.6 |
| 20260906005552 | 94 | 0 | 0.0 | 1.0 | 0.00 | 0.00 | 0.00 | 48 | 1009.6 |
| 20260906005054 | 94 | 0 | 0.0 | 1.0 | 0.00 | 0.00 | 0.00 | 48 | 1009.5 |
| 20260906004604 | 94 | 0 | 0.0 | 1.0 | 0.00 | 0.00 | 0.00 | 48 | 1009.5 |
| 20260906004052 | 95 | 0 | 0.0 | 1.0 | 0.00 | 0.00 | 0.00 | 46 | 1009.5 |
| 20260906003552 | 95 | 0 | 0.0 | 1.0 | 0.00 | 0.00 | 0.00 | 46 | 1009.6 |
| 20260906003104 | 95 | 0 | 0.0 | 2.0 | 0.00 | 0.00 | 0.00 | 46 | 1009.6 |
| 20260906002554 | 95 | 0 | 0.0 | 2.0 | 0.00 | 0.00 | 0.00 | 46 | 1009.5 |
| 20260906002054 | 95 | 117 | 0.0 | 2.0 | 0.00 | 0.00 | 0.00 | 45 | 1009.6 |
| 20260906001610 | 96 | 119 | 0.0 | 3.0 | 0.00 | 0.00 | 0.00 | 45 | 1009.6 |
| 20260906001057 | 96 | 0 | 0.0 | 5.0 | 0.00 | 0.00 | 0.00 | 44 | 1009.6 |
| 20260906000559 | 96 | 119 | 0.0 | 5.0 | 0.00 | 0.00 | 0.00 | 45 | 1009.6 |
| 20260905235551 | 96 | 0 | 1.0 | 8.0 | 0.00 | 0.00 | 0.00 | 44 | 1009.6 |
| 20260905235056 | 96 | 105 | 2.0 | 8.0 | 0.00 | 0.00 | 0.00 | 44 | 1009.7 |
| 20260905234559 | 97 | 119 | 3.0 | 8.0 | 0.00 | 0.00 | 0.00 | 43 | 1009.7 |
| 20260905234052 | 97 | 97 | 2.0 | 10.0 | 0.00 | 0.00 | 0.00 | 44 | 1009.7 |
| 20260905233552 | 97 | 0 | 2.0 | 11.0 | 0.00 | 0.00 | 0.00 | 43 | 1009.5 |
| 20260905233103 | 97 | 130 | 3.0 | 11.0 | 0.00 | 0.00 | 0.00 | 42 | 1009.7 |
| 20260905232551 | 98 | 108 | 2.0 | 9.0 | 0.00 | 0.00 | 0.00 | 42 | 1009.6 |
| 20260905232052 | 98 | 142 | 4.0 | 9.0 | 0.00 | 0.00 | 0.00 | 42 | 1009.5 |
| 20260905231608 | 98 | 136 | 4.0 | 9.0 | 0.00 | 0.00 | 0.00 | 42 | 1009.5 |
| 20260905231054 | 99 | 0 | 1.0 | 5.0 | 0.00 | 0.00 | 0.00 | 41 | 1009.5 |
| 20260905230554 | 98 | 113 | 1.0 | 7.0 | 0.00 | 0.00 | 0.00 | 40 | 1009.4 |
| 20260905230108 | 98 | 163 | 1.0 | 7.0 | 0.00 | 0.00 | 0.00 | 41 | 1009.4 |
| 20260905225552 | 98 | 182 | 1.0 | 5.0 | 0.00 | 0.00 | 0.00 | 41 | 1009.4 |
| 20260905225052 | 98 | 157 | 0.0 | 5.0 | 0.00 | 0.00 | 0.00 | 42 | 1009.5 |
| 20260905224617 | 98 | 157 | 2.0 | 8.0 | 0.00 | 0.00 | 0.00 | 42 | 1009.6 |
| 20260905224052 | 98 | 0 | 2.0 | 8.0 | 0.00 | 0.00 | 0.00 | 41 | 1009.7 |
| 20260905223552 | 98 | 106 | 3.0 | 8.0 | 0.00 | 0.00 | 0.00 | 41 | 1009.7 |
| 20260905223116 | 98 | 113 | 2.0 | 7.0 | 0.00 | 0.00 | 0.00 | 42 | 1009.6 |
| 20260905222552 | 98 | 57 | 2.0 | 6.0 | 0.00 | 0.00 | 0.00 | 42 | 1009.6 |
| 20260905222051 | 98 | 138 | 0.0 | 9.0 | 0.00 | 0.00 | 0.00 | 44 | 1009.7 |
| 20260905221603 | 98 | 94 | 1.0 | 9.0 | 0.00 | 0.00 | 0.00 | 43 | 1009.8 |
| 20260905221053 | 98 | 74 | 3.0 | 7.0 | 0.00 | 0.00 | 0.00 | 42 | 1009.8 |
| 20260905220554 | 99 | 117 | 0.0 | 9.0 | 0.00 | 0.00 | 0.00 | 42 | 1009.9 |
| 20260905220105 | 99 | 0 | 1.0 | 9.0 | 0.00 | 0.00 | 0.00 | 43 | 1009.9 |
| 20260905215555 | 99 | 128 | 1.0 | 9.0 | 0.00 | 0.00 | 0.00 | 43 | 1009.9 |
| 20260905215055 | 99 | 113 | 3.0 | 12.0 | 0.00 | 0.00 | 0.00 | 44 | 1010.0 |
| 20260905214605 | 99 | 126 | 2.0 | 12.0 | 0.00 | 0.00 | 0.00 | 43 | 1009.9 |
| 20260905214054 | 100 | 123 | 2.0 | 11.0 | 0.00 | 0.00 | 0.00 | 42 | 1009.9 |
| 20260905213552 | 100 | 154 | 2.0 | 7.0 | 0.00 | 0.00 | 0.00 | 43 | 1009.9 |
| 20260905213105 | 99 | 80 | 1.0 | 6.0 | 0.00 | 0.00 | 0.00 | 43 | 1009.9 |
| 20260905212552 | 99 | 128 | 1.0 | 5.0 | 0.00 | 0.00 | 0.00 | 43 | 1009.9 |
| 20260905212051 | 99 | 123 | 2.0 | 8.0 | 0.00 | 0.00 | 0.00 | 43 | 1010.1 |
| 20260905211605 | 99 | 200 | 2.0 | 10.0 | 0.00 | 0.00 | 0.00 | 43 | 1010.0 |
| 20260905211051 | 98 | 69 | 4.0 | 10.0 | 0.00 | 0.00 | 0.00 | 44 | 1010.1 |
| 20260905210553 | 98 | 193 | 3.0 | 9.0 | 0.00 | 0.00 | 0.00 | 44 | 1010.2 |
| 20260905210107 | 99 | 227 | 3.0 | 9.0 | 0.00 | 0.00 | 0.00 | 41 | 1010.1 |
| 20260905205554 | 98 | 109 | 1.0 | 9.0 | 0.00 | 0.00 | 0.00 | 44 | 1010.3 |
| 20260905205052 | 98 | 121 | 3.0 | 11.0 | 0.00 | 0.00 | 0.00 | 43 | 1010.3 |
| 20260905204555 | 98 | 135 | 4.0 | 11.0 | 0.00 | 0.00 | 0.00 | 45 | 1010.4 |
| 20260905204052 | 99 | 161 | 2.0 | 7.0 | 0.00 | 0.00 | 0.00 | 44 | 1010.5 |
| 20260905203552 | 98 | 0 | 3.0 | 9.0 | 0.00 | 0.00 | 0.00 | 44 | 1010.6 |